DMSP 5D-2 F12 DEB, 41835

Orbit data source: Space-Track

DMSP 5D-2 F12 DEB, 41835 is space debris in SSO originally from a launch on Mon, 29 Aug 1994 UTC launched from the Air Force Western Test Range (AFWTR). Debris objects in space refer to the collection of defunct objects orbiting the Earth. Examples of debris include non-operational satellites, rocket bodies, and fragments generated from explosions, collisions, or faulty payload assembly.

Loading next visibility...
Identifier
41835, 1994-057F
Orbit
SSO
Country
Flag of USUS
Related business
Manufacturer
LM/EW
Mission
Spacecraft
Bus & Motor
Unknown
Mass
Unknown
Launch date (UTC)
1994-08-29 (31 years ago)
Launch vehicle
Unknown
Launch site
Air Force Western Test Range (AFWTR)
Object type
Payload
Rocket body
Debris
Shape & HBR
Unknown
Radar Cross Section
Medium (>0.1 m² and <1 m²)

Expand to show TLE details & history
Last TLE update: 16 hours ago

TLE from 16 hours ago
0 DMSP 5D-2 F12 DEB
1 41835U 94057F   25260.83881693  .00001980  00000-0  82799-3 0  9993
2 41835  98.9167   3.7527 0017393 306.3634  53.5940 14.27221745461209
Epoch: 2025-09-17T20:07Z
TLE epoch observation values (Epoch: 2025-09-17T20:07:53.782Z)
Latitude
-0.00007°
Longitude
64.76961°
Altitude
796.552 km
Speed
7.459 km/s
True Right ascension
00h 15m 00s
True Declination
0° 00' 00"
Sunlit
Object was in full shadow at epoch
Visualization orbit readout
Latitude
Unknown
Longitude
Unknown
Altitude
Unknown
Speed
Unknown
Apparent Right ascension
Unknown
Apparent Declination
Unknown
Sunlit
N/A
Visualization observer readout
Local Sidereal Time
04:34:57
Azimuth
Unknown
Elevation
Unknown
Doppler factor
Unknown
Orbital elements
Apogee altitude
810.673 km
Perigee altitude
785.71 km
Semi-major axis
7,176.328 km
Eccentricity
0.00174
Inclination
98.9167°
RAAN
3.7527°
Arg. of periapsis
306.3634°
True anomaly
53.75462°
Mean anomaly
53.594°
Eccentric anomaly
53.67429°
Mean motion
3.57018 °/min
Orbital period
100.84 mins
BSTAR
0.00082799
Loading maneuver chart data...
Computing Atmospheric mass density...
Loading historical data...
Loading historical data...
Loading historical data...
Loading historical data...
Loading historical data...
Loading historical data...
Loading historical data...

Documentation

Showing up to 5 results
|